Flag for Germany Weather past 2 weeks in Westerstede, Lower Saxony, Germany

Now
52 °F

Passing clouds.


Feels Like: 46 °F
Forecast: 41 / 50 °F
Wind: 22 mph from West

Location: Wittmundhaven

Current Time: Dec 23, 2014 at 2:03:40 AM

Latest Report: Dec 23, 2014 at 1:20 AM


Visibility: N/A

Pressure: 29.80 "Hg

Humidity: 82%

Dew point: 46 °F

Location of WesterstedeLocation

Historic Weather in Westerstede — Graph

°F

Westerstede temperature yesterday

Maximum temperature yesterday: 54 °F (at 9:20 AM)
Minimum temperature yesterday: 48 °F (at 12:20 AM)
Average temperature yesterday: 52 °F

Past Weeks' High & Low Weather Summary

 TemperatureHumidityPressure
High54 °F (Dec 18, 6:20 PM)100% (Dec 8, 6:50 PM)30.30 "Hg (Dec 8, 6:50 PM)
Low30 °F (Dec 8, 11:50 PM)71% (Dec 10, 2:20 PM)29.15 "Hg (Dec 12, 11:20 AM)
Average41 °F88%29.78 "Hg
* Reported Dec 8 12:20 AM — Dec 23 12:20 AM, Westerstede, Weather by CustomWeather, © 2014

Note: Actual official high and low records may vary slightly from our data, if they occured in-between our weather recording intervals... More about our weather records

Advertising

Westerstede weather history for previous 24 hours

 ConditionsComfort  
Time TempWeatherWind HumidityBarometerVisibility
12:20 AM
Dec 23
52 °FLight rain. Passing clouds.25 mph82%29.80 "HgN/A
11:20 PM
Dec 22
52 °FDrizzle. Mostly cloudy.28 mph88%29.80 "Hg6 mi
10:20 PM52 °FLight rain. Mostly cloudy.26 mph88%29.80 "Hg4 mi
9:20 PM52 °FRain. Fog.25 mph88%29.80 "Hg3 mi
9:03 PM52 °FRain. Fog.24 mph88%29.80 "Hg3 mi
8:20 PM52 °FRain. Fog.24 mph88%29.80 "Hg3 mi
7:20 PM52 °FDrizzle. Fog.22 mph88%29.80 "Hg3 mi
6:20 PM52 °FPassing clouds.24 mph88%29.80 "HgN/A
5:20 PM54 °FPassing clouds.30 mph77%29.80 "HgN/A
4:20 PM54 °FPassing clouds.31 mph77%29.77 "HgN/A
3:20 PM54 °FDrizzle. Partly sunny.33 mph77%29.77 "HgN/A
2:20 PM54 °FDrizzle. Partly sunny.33 mph82%29.77 "HgN/A
1:20 PM54 °FPartly sunny.38 mph82%29.77 "HgN/A
12:20 PM54 °FPartly sunny.35 mph82%29.77 "HgN/A
11:20 AM54 °FDrizzle. Partly sunny.32 mph82%29.77 "HgN/A
10:20 AM54 °FDrizzle. Partly sunny.33 mph88%29.74 "HgN/A
9:20 AM54 °FDrizzle. Partly sunny.31 mph82%29.74 "HgN/A
8:20 AM52 °FPassing clouds.29 mph88%29.77 "HgN/A
7:20 AM52 °FPassing clouds.25 mph88%29.77 "HgN/A
6:20 AM52 °FPassing clouds.26 mph88%29.80 "HgN/A
5:20 AM52 °FPassing clouds.26 mph88%29.80 "HgN/A
4:20 AM52 °FPassing clouds.26 mph88%29.80 "HgN/A
3:20 AM52 °FPassing clouds.29 mph82%29.83 "HgN/A
2:20 AM50 °FPassing clouds.28 mph88%29.86 "HgN/A
Weather by CustomWeather, © 2014

See weather overviewHow to use our weather pages